EW3845 Weather Reports


time (UTC)temp
C
wind
direction
speed
KPH
gust
KPH
rain 1hr
cm
rain 24hr
cm
rain mn
cm
humidity
%
barometer
mb
20260906133031 22 173 0.0 0.0 0.00 0.00 0.00 55 1023.4
20260906131528 22 17 0.0 0.0 0.00 0.00 0.00 54 1023.7
20260906130026 22 19 0.0 0.0 0.00 0.00 0.00 54 1023.8
20260906124523 22 173 0.0 0.0 0.00 0.00 0.00 55 1024.1
20260906123037 22 185 0.0 0.0 0.00 0.00 0.00 54 1024.3
20260906121519 22 117 0.0 0.0 0.00 0.00 0.00 53 1024.5
20260906120017 22 28 0.0 0.0 0.00 0.00 0.00 56 1024.5
20260906114516 22 180 0.0 0.0 0.00 0.00 0.00 57 1024.7
20260906113012 21 20 0.0 0.0 0.00 0.00 0.00 59 1024.9
20260906111509 21 32 0.0 0.0 0.00 0.00 0.00 59 1025.1
20260906110006 21 185 0.0 0.0 0.00 0.00 0.00 60 1025.3
20260906104503 20 12 0.0 0.0 0.00 0.00 0.00 59 1025.4
20260906103001 20 176 0.0 0.0 0.00 0.00 0.00 62 1025.5
20260906101558 20 17 0.0 0.0 0.00 0.00 0.00 63 1025.5
20260906100100 20 23 0.0 0.0 0.00 0.00 0.00 64 1025.7
20260906094553 19 186 0.0 0.0 0.00 0.00 0.00 67 1026.0
20260906093057 18 61 0.0 0.0 0.00 0.00 0.00 68 1026.3
20260906091548 18 18 0.0 0.0 0.00 0.00 0.00 73 1026.2
20260906090058 17 77 0.0 0.0 0.00 0.00 0.00 77 1026.4
20260906084539 16 69 0.0 0.0 0.00 0.00 0.00 80 1026.7
20260906083038 16 31 0.0 0.0 0.00 0.00 0.00 83 1026.7
20260906081532 15 15 0.0 0.0 0.00 0.00 0.00 85 1026.6
20260906080028 15 360 0.0 0.0 0.00 0.00 0.00 87 1026.6
20260906074526 14 355 0.0 0.0 0.00 0.00 0.00 89 1026.5
20260906073022 13 355 0.0 0.0 0.00 0.00 0.00 91 1026.4
20260906071519 13 355 0.0 0.0 0.00 0.00 0.00 92 1026.4
20260906070017 12 238 0.0 0.0 0.00 0.00 0.00 92 1026.4
20260906064516 12 229 0.0 0.0 0.00 0.00 0.00 92 1026.3
20260906063021 11 230 0.0 0.0 0.00 0.00 0.00 93 1026.2
20260906061514 11 313 0.0 0.0 0.00 0.00 0.00 93 1026.2
20260906060014 11 315 0.0 0.0 0.00 0.00 0.00 92 1026.1
20260906054510 10 360 0.0 0.0 0.00 0.00 0.00 92 1026.1
20260906053009 10 360 0.0 0.0 0.00 0.00 0.00 92 1026.2
20260906051510 10 360 0.0 0.0 0.00 0.00 0.00 92 1026.4
20260906050008 10 360 0.0 0.0 0.00 0.00 0.00 92 1026.4
20260906044506 10 360 0.0 0.0 0.00 0.00 0.00 92 1026.4
20260906043006 10 360 0.0 0.0 0.00 0.00 0.00 91 1026.3
20260906041507 11 360 0.0 0.0 0.00 0.00 0.00 92 1026.2
20260906040014 10 360 0.0 0.0 0.00 0.00 0.00 91 1026.1
20260906034504 10 360 0.0 0.0 0.00 0.00 0.00 91 1025.9
20260906033004 10 360 0.0 0.0 0.00 0.00 0.00 91 1026.1
20260906031502 11 360 0.0 0.0 0.00 0.00 0.00 91 1026.7
20260906030001 11 360 0.0 0.0 0.00 0.00 0.00 90 1026.7
20260906024559 11 360 0.0 0.0 0.00 0.00 0.00 90 1026.4
20260906023059 11 360 0.0 0.0 0.00 0.00 0.00 90 1026.3
20260906021603 11 360 0.0 0.0 0.00 0.00 0.00 90 1026.3
20260906020105 11 360 0.0 0.0 0.00 0.00 0.00 89 1026.1
20260906014556 11 360 0.0 0.0 0.00 0.00 0.00 89 1026.4
20260906013104 11 360 0.0 0.0 0.00 0.00 0.00 89 1026.3
20260906011554 11 360 0.0 0.0 0.00 0.00 0.00 89 1026.2
20260906010054 11 360 0.0 0.0 0.00 0.00 0.00 89 1025.9
20260906004552 11 360 0.0 0.0 0.00 0.00 0.00 88 1026.0
20260906003051 11 360 0.0 0.0 0.00 0.00 0.00 88 1026.1
20260906001550 11 360 0.0 0.0 0.00 0.00 0.00 88 1026.1
20260906000100 11 360 0.0 0.0 0.00 0.00 0.00 88 1026.2
20260905234556 11 360 0.0 0.0 0.00 0.00 0.00 87 1026.2
20260905233047 12 360 0.0 0.0 0.00 0.00 0.00 87 1026.2
20260905231545 12 360 0.0 0.0 0.00 0.00 0.00 87 1026.0
20260905230044 12 360 0.0 0.0 0.00 0.00 0.00 86 1026.0
20260905224542 12 360 0.0 0.0 0.00 0.00 0.00 86 1026.0
20260905223045 12 360 0.0 0.0 0.00 0.00 0.00 85 1025.9
20260905221538 12 360 0.0 0.0 0.00 0.00 0.00 84 1025.7
20260905220038 12 360 0.0 0.0 0.00 0.00 0.00 84 1025.7
20260905214533 13 360 0.0 0.0 0.00 0.00 0.00 83 1025.7
20260905213031 13 360 0.0 0.0 0.00 0.00 0.00 83 1025.5
20260905211529 13 360 0.0 0.0 0.00 0.00 0.00 82 1025.4
20260905210043 13 360 0.0 0.0 0.00 0.00 0.00 81 1025.3
20260905204534 14 360 0.0 0.0 0.00 0.00 0.00 80 1025.2
20260905203023 14 360 0.0 0.0 0.00 0.00 0.00 79 1025.0
20260905201521 14 360 0.0 0.0 0.00 0.00 0.00 79 1025.1
20260905200024 15 360 0.0 0.0 0.00 0.00 0.00 77 1025.0
20260905194518 15 360 0.0 0.0 0.00 0.00 0.00 76 1024.8
20260905193019 16 360 0.0 0.0 0.00 0.00 0.00 75 1024.8
20260905191520 16 360 0.0 0.0 0.00 0.00 0.00 73 1024.7
20260905190019 17 360 0.0 0.0 0.00 0.00 0.00 73 1024.6
20260905184519 17 360 0.0 0.0 0.00 0.00 0.00 71 1024.5
20260905183014 17 360 0.0 0.0 0.00 0.00 0.00 70 1024.3
20260905181516 18 360 0.0 0.0 0.00 0.00 0.00 70 1024.1
20260905180009 18 360 0.0 0.0 0.00 0.00 0.00 70 1023.9
20260905174518 18 360 0.0 0.0 0.00 0.00 0.00 69 1023.9
20260905173007 19 360 0.0 0.0 0.00 0.00 0.00 67 1023.7
20260905171505 19 360 0.0 0.0 0.00 0.00 0.00 65 1023.4
20260905170005 20 258 0.0 0.0 0.00 0.05 0.00 64 1023.4
20260905164503 20 360 0.0 0.0 0.00 0.05 0.00 63 1023.2
20260905163001 20 360 0.0 0.0 0.00 0.05 0.00 63 1023.1
20260905161559 20 360 0.0 0.0 0.00 0.05 0.00 62 1022.8
20260905160109 21 238 0.0 0.0 0.00 0.28 0.00 65 1022.8
20260905154630 21 360 0.0 0.0 0.00 0.28 0.00 63 1022.6
20260905153056 21 360 0.0 0.0 0.00 0.28 0.00 62 1022.5
20260905151555 21 294 0.0 0.0 0.00 0.28 0.00 61 1022.3
20260905144551 21 360 0.0 0.0 0.00 0.28 0.00 63 1022.1
20260905143059 20 360 0.0 0.0 0.00 0.28 0.00 64 1022.1
20260905141548 20 360 0.0 0.0 0.00 0.28 0.00 67 1022.0
20260905140048 20 289 0.0 0.0 0.00 0.28 0.00 66 1021.8
20260905134546 21 360 0.0 0.0 0.00 0.28 0.00 67 1021.8